This is the latest recevied weather packets stored in our database for station/object KB0RPJ. If no packets are shown the sender has not sent any weather packets the latest 1 day(s).
| Time | Temp. | Humidity | Pressure | Rain* | Wind** | Luminosity | Snow |
|---|---|---|---|---|---|---|---|
| 1778021407 | 13.33° C | 52% | 1010.4 hPa | 0 mm | 0 m/s | 54 W/m² | - |
| 1778021104 | 13.33° C | 52% | 1010.4 hPa | 0 mm | 0 m/s | 75 W/m² | - |
| 1778020805 | 13.33° C | 52% | 1010.3 hPa | 0 mm | 0.89 m/s, 317° | 112 W/m² | - |
| 1778020505 | 13.33° C | 53% | 1010.4 hPa | 0 mm | 0.89 m/s, 35° | 110 W/m² | - |
| 1778020216 | 13.33° C | 52% | 1010.5 hPa | 0 mm | 0.89 m/s, 31° | 113 W/m² | - |
| 1778019904 | 13.33° C | 51% | 1010.4 hPa | 0 mm | 0.45 m/s, 325° | 157 W/m² | - |
| 1778019604 | 13.33° C | 50% | 1010.4 hPa | 0 mm | 0.45 m/s, 324° | 115 W/m² | - |
| 1778019304 | 13.33° C | 51% | 1010.4 hPa | 0 mm | 0.89 m/s, 0° | 82 W/m² | - |
| 1778019005 | 13.33° C | 51% | 1010.4 hPa | 0 mm | 0.89 m/s, 333° | 161 W/m² | - |
| 1778018705 | 13.33° C | 50% | 1010.4 hPa | 0 mm | 0.89 m/s, 28° | 150 W/m² | - |
| 1778018404 | 13.33° C | 52% | 1010.6 hPa | 0 mm | 0.45 m/s, 34° | 123 W/m² | - |
| 1778018104 | 13.33° C | 51% | 1010.6 hPa | 0 mm | 0.89 m/s, 339° | 118 W/m² | - |
| 1778017805 | 13.33° C | 50% | 1010.5 hPa | 0 mm | 1.34 m/s, 354° | 95 W/m² | - |
| 1778017506 | 13.33° C | 50% | 1010.4 hPa | 0 mm | 1.34 m/s, 25° | 94 W/m² | - |
| 1778017217 | 13.33° C | 50% | 1010.5 hPa | 0 mm | 0.89 m/s, 339° | 130 W/m² | - |
| 1778016906 | 13.33° C | 50% | 1010.6 hPa | 0 mm | 0.89 m/s, 313° | 113 W/m² | - |
| 1778016605 | 13.33° C | 50% | 1010.6 hPa | 0 mm | 0.89 m/s, 281° | 120 W/m² | - |
| 1778016305 | 13.33° C | 51% | 1010.6 hPa | 0 mm | 0.45 m/s, 310° | 155 W/m² | - |
| 1778016005 | 13.33° C | 49% | 1010.6 hPa | 0 mm | 1.34 m/s, 317° | 143 W/m² | - |
| 1778015719 | 13.33° C | 49% | 1010.7 hPa | 0 mm | 0.89 m/s, 3° | 163 W/m² | - |
| 1778015405 | 13.33° C | 51% | 1010.7 hPa | 0 mm | 0.45 m/s, 328° | 170 W/m² | - |
| 1778015105 | 12.78° C | 49% | 1010.6 hPa | 0 mm | 1.34 m/s, 351° | 162 W/m² | - |
| 1778014804 | 12.78° C | 48% | 1010.6 hPa | 0 mm | 2.24 m/s, 16° | 160 W/m² | - |
| 1778014506 | 13.33° C | 47% | 1010.7 hPa | 0 mm | 1.34 m/s, 33° | 169 W/m² | - |
| 1778014208 | 13.33° C | 49% | 1010.8 hPa | 0 mm | 1.34 m/s, 18° | 145 W/m² | - |
* Rain latest hour (hover to see other rain measurements)
** Current wind speed in m/s (hover to see current wind gust speed)